Time,TemperatureF,DewpointF,PressureIn,WindDirection,WindDirectionDegrees,WindSpeedMPH,WindSpeedGustMPH,Humidity,HourlyPrecipIn,Conditions,Clouds,dailyrainin,SolarRadiationWatts/m^2,SoftwareType,DateUTC
2013-09-08 00:02:00,56.0,51.0,-100.00,West,264,3.0,5.0,82,0.00,,,0.00,0.000000,,2013-09-08 06:02:00,
2013-09-08 00:12:00,56.0,51.0,-100.00,West,264,3.0,5.0,82,0.00,,,0.00,0.000000,,2013-09-08 06:12:00,
2013-09-08 00:42:00,54.0,48.0,-100.00,NE,49,2.0,6.0,79,0.00,,,0.00,0.000000,,2013-09-08 06:42:00,
2013-09-08 00:53:00,54.0,48.0,-100.00,NE,49,2.0,6.0,79,0.00,,,0.00,0.000000,,2013-09-08 06:53:00,
2013-09-08 01:01:00,54.0,48.0,-100.00,NE,49,2.0,6.0,79,0.00,,,0.00,0.000000,,2013-09-08 07:01:00,
2013-09-08 01:12:00,54.0,48.0,-100.00,NE,49,2.0,6.0,79,0.00,,,0.00,0.000000,,2013-09-08 07:12:00,
2013-09-08 01:42:00,56.0,46.0,-100.00,ESE,113,4.0,14.0,68,0.00,,,0.00,0.000000,,2013-09-08 07:42:00,
2013-09-08 01:52:00,56.0,46.0,-100.00,ESE,113,4.0,14.0,68,0.00,,,0.00,0.000000,,2013-09-08 07:52:00,
2013-09-08 02:02:00,56.0,46.0,-100.00,ESE,113,4.0,14.0,68,0.00,,,0.00,0.000000,,2013-09-08 08:02:00,
2013-09-08 02:11:00,56.0,46.0,-100.00,ESE,113,4.0,14.0,68,0.00,,,0.00,0.000000,,2013-09-08 08:11:00,
2013-09-08 02:42:00,54.0,46.0,-100.00,WNW,293,4.0,8.0,73,0.00,,,0.00,0.000000,,2013-09-08 08:42:00,
2013-09-08 02:52:00,54.0,46.0,-100.00,WNW,293,4.0,8.0,73,0.00,,,0.00,0.000000,,2013-09-08 08:52:00,
2013-09-08 03:02:00,54.0,46.0,-100.00,WNW,293,4.0,8.0,73,0.00,,,0.00,0.000000,,2013-09-08 09:02:00,
2013-09-08 03:11:00,54.0,46.0,-100.00,WNW,293,4.0,8.0,73,0.00,,,0.00,0.000000,,2013-09-08 09:11:00,
2013-09-08 03:43:00,55.0,47.0,-100.00,West,270,3.0,5.0,73,0.00,,,0.00,0.000000,,2013-09-08 09:43:00,
2013-09-08 03:54:00,55.0,47.0,-100.00,West,270,3.0,5.0,73,0.00,,,0.00,0.000000,,2013-09-08 09:54:00,
2013-09-08 04:03:00,55.0,47.0,-100.00,West,270,3.0,5.0,73,0.00,,,0.00,0.000000,,2013-09-08 10:03:00,
2013-09-08 04:12:00,55.0,47.0,-100.00,West,270,3.0,5.0,73,0.00,,,0.00,0.000000,,2013-09-08 10:12:00,
2013-09-08 04:42:00,55.0,47.0,-100.00,WNW,286,2.0,5.0,75,0.00,,,0.00,0.000000,,2013-09-08 10:42:00,
2013-09-08 04:53:00,55.0,47.0,-100.00,WNW,286,2.0,5.0,75,0.00,,,0.00,0.000000,,2013-09-08 10:53:00,
2013-09-08 05:02:00,55.0,47.0,-100.00,WNW,286,2.0,5.0,75,0.00,,,0.00,0.000000,,2013-09-08 11:02:00,
2013-09-08 05:12:00,55.0,47.0,-100.00,WNW,286,2.0,5.0,75,0.00,,,0.00,0.000000,,2013-09-08 11:12:00,
2013-09-08 05:42:00,54.0,46.0,-100.00,West,270,3.0,5.0,73,0.00,,,0.00,0.000000,,2013-09-08 11:42:00,
2013-09-08 05:52:00,54.0,46.0,-100.00,West,270,3.0,5.0,73,0.00,,,0.00,0.000000,,2013-09-08 11:52:00,
2013-09-08 06:02:00,54.0,46.0,-100.00,West,270,3.0,5.0,73,0.00,,,0.00,0.000000,,2013-09-08 12:02:00,
2013-09-08 06:12:00,54.0,46.0,-100.00,West,270,3.0,5.0,73,0.00,,,0.00,0.000000,,2013-09-08 12:12:00,
2013-09-08 06:42:00,54.0,47.0,-100.00,West,271,4.0,6.0,77,0.00,,,0.00,0.000000,,2013-09-08 12:42:00,
2013-09-08 06:52:00,54.0,47.0,-100.00,West,271,4.0,6.0,77,0.00,,,0.00,0.000000,,2013-09-08 12:52:00,
2013-09-08 07:01:00,54.0,47.0,-100.00,West,271,4.0,6.0,77,0.00,,,0.00,0.000000,,2013-09-08 13:01:00,
2013-09-08 07:11:00,54.0,47.0,-100.00,West,271,4.0,6.0,77,0.00,,,0.00,0.000000,,2013-09-08 13:11:00,
2013-09-08 07:42:00,55.0,46.0,-100.00,West,268,3.0,7.0,72,0.00,,,0.00,2.000000,,2013-09-08 13:42:00,
2013-09-08 07:52:00,55.0,46.0,-100.00,West,268,3.0,7.0,72,0.00,,,0.00,2.000000,,2013-09-08 13:52:00,
2013-09-08 08:02:00,55.0,46.0,-100.00,West,268,3.0,7.0,72,0.00,,,0.00,2.000000,,2013-09-08 14:02:00,
2013-09-08 08:11:00,55.0,46.0,-100.00,West,268,3.0,7.0,72,0.00,,,0.00,2.000000,,2013-09-08 14:11:00,
2013-09-08 08:42:00,55.0,47.0,-100.00,NE,49,3.0,6.0,75,0.00,,,0.00,15.000000,,2013-09-08 14:42:00,
2013-09-08 08:52:00,55.0,47.0,-100.00,NE,49,3.0,6.0,75,0.00,,,0.00,15.000000,,2013-09-08 14:52:00,
2013-09-08 09:02:00,55.0,47.0,-100.00,NE,49,3.0,6.0,75,0.00,,,0.00,15.000000,,2013-09-08 15:02:00,
2013-09-08 09:12:00,55.0,47.0,-100.00,NE,49,3.0,6.0,75,0.00,,,0.00,15.000000,,2013-09-08 15:12:00,
2013-09-08 09:45:00,57.0,48.0,-100.00,West,271,3.0,5.0,72,0.00,,,0.00,70.000000,,2013-09-08 15:45:00,
2013-09-08 09:54:00,57.0,48.0,-100.00,West,271,3.0,5.0,72,0.00,,,0.00,70.000000,,2013-09-08 15:54:00,
2013-09-08 10:04:00,57.0,48.0,-100.00,West,271,3.0,5.0,72,0.00,,,0.00,70.000000,,2013-09-08 16:04:00,
2013-09-08 10:14:00,57.0,48.0,-100.00,West,271,3.0,5.0,72,0.00,,,0.00,70.000000,,2013-09-08 16:14:00,
2013-09-08 10:44:00,63.0,47.0,-100.00,WNW,284,1.0,5.0,56,0.00,,,0.00,196.000000,,2013-09-08 16:44:00,
2013-09-08 10:53:00,63.0,47.0,-100.00,WNW,284,1.0,5.0,56,0.00,,,0.00,196.000000,,2013-09-08 16:53:00,
2013-09-08 11:03:00,63.0,47.0,-100.00,WNW,284,1.0,5.0,56,0.00,,,0.00,196.000000,,2013-09-08 17:03:00,
2013-09-08 11:12:00,63.0,47.0,-100.00,WNW,284,1.0,5.0,56,0.00,,,0.00,196.000000,,2013-09-08 17:12:00,
2013-09-08 11:43:00,66.0,49.0,-100.00,East,94,3.0,8.0,54,0.00,,,0.00,337.000000,,2013-09-08 17:43:00,
2013-09-08 11:53:00,66.0,49.0,-100.00,East,94,3.0,8.0,54,0.00,,,0.00,337.000000,,2013-09-08 17:53:00,
2013-09-08 12:02:00,66.0,49.0,-100.00,East,94,3.0,8.0,54,0.00,,,0.00,337.000000,,2013-09-08 18:02:00,
2013-09-08 12:13:00,66.0,49.0,-100.00,East,94,3.0,8.0,54,0.00,,,0.00,337.000000,,2013-09-08 18:13:00,
2013-09-08 12:42:00,65.0,50.0,-100.00,ESE,122,8.0,12.0,58,0.00,,,0.00,439.000000,,2013-09-08 18:42:00,
2013-09-08 12:52:00,65.0,50.0,-100.00,ESE,122,8.0,12.0,58,0.00,,,0.00,439.000000,,2013-09-08 18:52:00,
2013-09-08 13:01:00,65.0,50.0,-100.00,ESE,122,8.0,12.0,58,0.00,,,0.00,439.000000,,2013-09-08 19:01:00,
2013-09-08 13:12:00,65.0,50.0,-100.00,ESE,122,8.0,12.0,58,0.00,,,0.00,439.000000,,2013-09-08 19:12:00,
2013-09-08 13:42:00,64.0,52.0,-100.00,ESE,113,8.0,11.0,64,0.00,,,0.00,365.000000,,2013-09-08 19:42:00,
2013-09-08 13:52:00,64.0,52.0,-100.00,ESE,113,8.0,11.0,64,0.00,,,0.00,365.000000,,2013-09-08 19:52:00,
2013-09-08 14:03:00,64.0,52.0,-100.00,ESE,113,8.0,11.0,64,0.00,,,0.00,365.000000,,2013-09-08 20:03:00,
2013-09-08 14:11:00,64.0,52.0,-100.00,ESE,113,8.0,11.0,64,0.00,,,0.00,365.000000,,2013-09-08 20:11:00,
2013-09-08 14:42:00,68.0,47.0,-100.00,ESE,118,8.0,12.0,47,0.00,,,0.00,473.000000,,2013-09-08 20:42:00,
2013-09-08 14:53:00,68.0,47.0,-100.00,ESE,118,8.0,12.0,47,0.00,,,0.00,473.000000,,2013-09-08 20:53:00,
2013-09-08 15:02:00,68.0,47.0,-100.00,ESE,118,8.0,12.0,47,0.00,,,0.00,473.000000,,2013-09-08 21:02:00,
2013-09-08 15:12:00,68.0,47.0,-100.00,ESE,118,8.0,12.0,47,0.00,,,0.00,473.000000,,2013-09-08 21:12:00,
2013-09-08 15:44:00,63.0,51.0,-100.00,ESE,113,8.0,16.0,65,0.00,,,0.00,315.000000,,2013-09-08 21:44:00,
2013-09-08 15:54:00,63.0,51.0,-100.00,ESE,113,8.0,16.0,65,0.00,,,0.00,315.000000,,2013-09-08 21:54:00,
2013-09-08 16:04:00,63.0,51.0,-100.00,ESE,113,8.0,16.0,65,0.00,,,0.00,315.000000,,2013-09-08 22:04:00,
2013-09-08 16:13:00,63.0,51.0,-100.00,ESE,113,8.0,16.0,65,0.00,,,0.00,315.000000,,2013-09-08 22:13:00,
2013-09-08 16:44:00,64.0,51.0,-100.00,ESE,113,6.0,11.0,62,0.00,,,0.00,274.000000,,2013-09-08 22:44:00,
2013-09-08 16:53:00,64.0,51.0,-100.00,ESE,113,6.0,11.0,62,0.00,,,0.00,274.000000,,2013-09-08 22:53:00,
2013-09-08 17:04:00,64.0,51.0,-100.00,ESE,113,6.0,11.0,62,0.00,,,0.00,274.000000,,2013-09-08 23:04:00,
2013-09-08 17:12:00,64.0,51.0,-100.00,ESE,113,6.0,11.0,62,0.00,,,0.00,274.000000,,2013-09-08 23:12:00,
2013-09-08 17:42:00,66.0,45.0,-100.00,WNW,288,8.0,20.0,47,0.00,,,0.00,224.000000,,2013-09-08 23:42:00,
2013-09-08 17:52:00,66.0,45.0,-100.00,WNW,288,8.0,20.0,47,0.00,,,0.00,224.000000,,2013-09-08 23:52:00,
2013-09-08 18:02:00,66.0,45.0,-100.00,WNW,288,8.0,20.0,47,0.00,,,0.00,224.000000,,2013-09-09 00:02:00,
2013-09-08 18:11:00,66.0,45.0,-100.00,WNW,288,8.0,20.0,47,0.00,,,0.00,224.000000,,2013-09-09 00:11:00,
2013-09-08 18:42:00,65.0,44.0,-100.00,South,178,4.0,18.0,47,0.00,,,0.00,334.000000,,2013-09-09 00:42:00,
2013-09-08 18:52:00,65.0,44.0,-100.00,South,178,4.0,18.0,47,0.00,,,0.00,334.000000,,2013-09-09 00:52:00,
2013-09-08 19:01:00,65.0,44.0,-100.00,South,178,4.0,18.0,47,0.00,,,0.00,334.000000,,2013-09-09 01:01:00,
2013-09-08 19:12:00,65.0,44.0,-100.00,South,178,4.0,18.0,47,0.00,,,0.00,334.000000,,2013-09-09 01:12:00,
2013-09-08 19:42:00,56.0,47.0,-100.00,East,96,4.0,15.0,73,0.00,,,0.00,87.000000,,2013-09-09 01:42:00,
2013-09-08 19:52:00,56.0,47.0,-100.00,East,96,4.0,15.0,73,0.00,,,0.00,87.000000,,2013-09-09 01:52:00,
2013-09-08 20:02:00,56.0,47.0,-100.00,East,96,4.0,15.0,73,0.00,,,0.00,87.000000,,2013-09-09 02:02:00,
2013-09-08 20:11:00,56.0,47.0,-100.00,East,96,4.0,15.0,73,0.00,,,0.00,87.000000,,2013-09-09 02:11:00,
2013-09-08 20:42:00,56.0,46.0,-100.00,WNW,288,3.0,6.0,68,0.00,,,0.00,7.000000,,2013-09-09 02:42:00,
2013-09-08 20:53:00,56.0,46.0,-100.00,WNW,288,3.0,6.0,68,0.00,,,0.00,7.000000,,2013-09-09 02:53:00,
2013-09-08 21:02:00,56.0,46.0,-100.00,WNW,288,3.0,6.0,68,0.00,,,0.00,7.000000,,2013-09-09 03:02:00,
2013-09-08 21:12:00,56.0,46.0,-100.00,WNW,288,3.0,6.0,68,0.00,,,0.00,7.000000,,2013-09-09 03:12:00,
2013-09-08 21:44:00,55.0,46.0,-100.00,NW,317,1.0,5.0,71,0.00,,,0.00,0.000000,,2013-09-09 03:44:00,
2013-09-08 21:55:00,55.0,46.0,-100.00,NW,317,1.0,5.0,71,0.00,,,0.00,0.000000,,2013-09-09 03:55:00,
2013-09-08 22:03:00,55.0,46.0,-100.00,NW,317,1.0,5.0,71,0.00,,,0.00,0.000000,,2013-09-09 04:03:00,
2013-09-08 22:14:00,55.0,46.0,-100.00,NW,317,1.0,5.0,71,0.00,,,0.00,0.000000,,2013-09-09 04:14:00,
2013-09-08 22:43:00,54.0,43.0,-100.00,West,276,4.0,6.0,66,0.00,,,0.00,0.000000,,2013-09-09 04:43:00,
2013-09-08 22:54:00,54.0,43.0,-100.00,West,276,4.0,6.0,66,0.00,,,0.00,0.000000,,2013-09-09 04:54:00,
2013-09-08 23:03:00,54.0,43.0,-100.00,West,276,4.0,6.0,66,0.00,,,0.00,0.000000,,2013-09-09 05:03:00,
2013-09-08 23:13:00,54.0,43.0,-100.00,West,276,4.0,6.0,66,0.00,,,0.00,0.000000,,2013-09-09 05:13:00,
2013-09-08 23:43:00,57.0,41.0,-100.00,West,271,6.0,13.0,56,0.00,,,0.00,0.000000,,2013-09-09 05:43:00,
2013-09-08 23:53:00,57.0,41.0,-100.00,West,271,6.0,13.0,56,0.00,,,0.00,0.000000,,2013-09-09 05:53:00,